Location: Tr�vern
(48.0333°N, 4.6000°W)
Time: 00:41:06
(UTC+00:00)

Daily predictions for brighter satellites

Satellite Brightness Start Highest point End
(mag) Time Altitude Azimuth Time Altitude Azimuth Time Altitude Azimuth
COSMOS 2455 4.2 00:00:34 10° WNW 00:05:13 24° WSW 00:07:04 20° SW
Cosmos 1269 Rocket 3.9 00:07:29 40° SSW 00:09:27 86° ESE 00:14:47 10° NNE
Landsat 4 4.4 00:06:52 10° NNE 00:10:29 40° E 00:10:43 39° ESE
Cosmos 1441 Rocket 3.9 00:10:43 40° ESE 00:11:08 41° E 00:14:52 10° NNE
Lacrosse 5 2.1 00:10:39 44° SSE 00:11:23 47° SE 00:16:15 10° ENE
Cosmos 2228 Rocket 3.9 00:13:39 10° NNW 00:17:57 41° W 00:19:06 34° SW
SL-4 R/B 3.7 00:19:37 13° NNW 00:19:37 13° NNW 00:19:58 10° NNW
BREEZE-M DEB (TANK) 4.2 00:05:59 10° WSW 00:18:13 53° SSE 00:22:18 10° E
Meteor 1-4 Rocket 4.2 00:17:13 10° NNE 00:20:23 26° ENE 00:21:27 22° E
Cosmos 1607 3.9 00:20:03 31° SSW 00:23:15 85° SE 00:29:37 10° NE
CZ-4C R/B 3.5 00:16:34 10° NW 00:23:23 42° WSW 00:26:33 30° SSW
Cosmos 1943 3.7 00:19:53 23° SW 00:23:23 57° WNW 00:28:58 10° NNE
Cosmos 1666 Rocket 3.7 00:23:50 48° SE 00:24:45 61° E 00:29:04 10° NNE
Helios 1B rocket 3.2 00:28:29 10° NNE 00:32:23 39° E 00:33:01 36° ESE
CRYOSAT 2 4.3 00:28:07 10° N 00:33:01 87° E 00:34:29 46° S
USA 267 3.3 00:32:12 31° SSE 00:35:17 57° SW 00:41:44 10° WNW
Cosmos 1656 Rocket 4.3 00:32:01 10° NW 00:36:58 37° WSW 00:38:16 32° SW
Helios 1A 3.3 00:38:50 45° SW 00:39:26 49° W 00:43:30 10° NNW
Cosmos 1805 Rocket 4.2 00:39:37 36° WSW 00:40:51 47° WNW 00:45:06 10° N
Cosmos 972 Rocket 4.1 00:36:35 10° NNW 00:42:38 86° WSW 00:44:49 38° SSE
SL-4 R/B 3.1 00:43:34 20° WNW 00:43:59 21° NW 00:46:07 10° N
YAOGAN 11 4.4 00:44:19 46° SW 00:45:15 56° W 00:49:40 10° NNW
ALOS 2 4.2 00:45:17 21° WSW 00:46:05 22° W 00:49:32 10° NW
CZ-2D R/B 4.1 00:42:45 10° NE 00:46:21 18° E 00:49:08 13° SE
Cosmos 1184 Rocket 4.4 00:49:58 24° E 00:50:04 24° E 00:52:46 10° NE
Cosmos 2123 Rocket 4.1 00:45:21 10° NNW 00:51:26 61° W 00:54:00 35° SSW
Cosmos 1238 Rocket 3.5 00:50:05 39° SSE 00:51:55 65° E 00:56:25 10° NNE
Meteor 1-27 Rocket 4.0 00:50:36 10° NNW 00:56:08 57° W 00:58:15 36° SSW
Meteor 1-29 3.5 00:56:56 10° NNE 01:00:14 45° E 01:00:26 44° ESE
Meteor 1-20 Rocket 4.5 00:58:23 34° SSE 01:00:41 60° E 01:06:17 10° NNE
BREEZE-M DEB (TANK) 4.2 00:56:36 10° W 01:01:04 81° N 01:20:13 10° E
Cosmos 724 4.3 00:59:22 38° SSW 01:01:35 68° ESE 01:07:23 10° NE
Cosmos 2369 Rocket 4.3 01:07:00 10° W 01:08:23 11° W 01:09:33 10° WSW
Sich 1 4.3 01:10:31 25° WSW 01:11:58 31° WNW 01:15:53 10° N
Cosmos 1992 Rocket 4.1 01:09:37 10° NNW 01:14:49 62° WSW 01:16:38 39° S
Cosmos 1605 Rocket 4.1 01:11:59 33° SSW 01:15:00 70° W 01:21:15 10° N
Okean 1-7 3.7 01:13:21 10° N 01:17:40 49° ENE 01:19:46 27° SE
Cosmos 1470 Rocket 3.5 01:16:51 45° SSW 01:18:12 82° W 01:22:43 10° N
Cosmos 1153 Rocket 4.4 01:17:14 33° S 01:20:14 87° E 01:26:25 10° N
Cosmos 1633 Rocket 3.8 01:20:41 33° WSW 01:22:02 43° WNW 01:26:17 10° N
Meteor 1-19 Rocket 4.4 01:18:14 10° N 01:23:53 70° ENE 01:27:06 26° SSE
ADEOS II 4.4 01:21:27 10° NE 01:24:31 15° E 01:27:35 10° SE
NOSS 2-1 (E) 4.3 01:21:11 10° NW 01:26:25 81° SW 01:33:51 10° SE
ISS -2.5 01:26:01 10° WNW 01:29:15 43° N 01:32:30 10° ENE
Resurs 1-4 Rocket 3.0 01:24:32 10° NNE 01:29:33 40° E 01:32:21 23° SSE
Cosmos 1862 Rocket 4.2 01:26:21 10° NNW 01:30:33 41° W 01:31:38 35° SW
PSLV R/B 4.4 01:26:48 10° N 01:30:50 41° WNW 01:32:24 29° WSW
Cosmos 2251 Rocket 3.7 01:32:39 32° SW 01:35:03 64° WNW 01:40:17 10° NNE
Abrixas rocket 1.8 01:35:13 79° NNE 01:35:13 79° NNE 01:38:02 10° E
UNK 4.3 01:33:05 21° SE 01:36:02 56° ENE 01:40:35 10° N
ATLAS 5 CENTAUR R/B 3.9 01:35:05 10° NNW 01:40:03 35° NE 01:45:44 10° E
Gbstr 26 Del rocket 3.4 01:37:59 10° WNW 01:41:55 63° NNE 01:46:32 10° E
USA 215 4.3 01:38:45 10° ENE 01:44:56 46° NNW 01:51:06 10° W
Cosmos 2061 Rocket 4.4 01:41:58 22° SSE 01:46:05 57° E 01:52:15 10° NNE
Cosmos 1980 Rocket 3.9 01:41:29 10° NNW 01:46:39 33° NE 01:51:45 10° ESE
Cosmos 2173 Rocket 4.0 01:43:02 27° S 01:46:42 82° E 01:53:02 10° N
Cosmos 2242 Rocket 3.9 01:42:52 10° NNW 01:47:20 54° W 01:48:52 36° SSW
SL-8 R/B 3.8 01:46:35 36° SSW 01:48:15 53° SSE 01:52:57 10° E
Spot 1 4.3 01:48:09 33° S 01:50:18 66° WSW 01:54:57 10° NNW
Cosmos 1602 4.0 01:52:47 39° SW 01:53:52 54° WNW 01:57:39 10° N
Lacrosse 5 2.6 01:49:48 12° W 01:54:22 50° NNW 01:59:21 10° NE
Meteor 1-4 Rocket 4.0 01:52:19 10° NW 01:55:20 24° W 01:55:37 24° W
Okean 3 4.2 01:51:46 10° N 01:55:51 49° ENE 01:58:48 18° SSE
IRAS Rocket 4.2 01:54:13 27° S 01:57:15 67° WSW 02:02:45 10° NNW
Cosmos 2016 Rocket 4.2 01:53:41 23° S 01:57:39 69° E 02:03:51 10° NNE
Okean 1 3.8 01:54:58 10° NNW 01:58:44 43° W 01:59:44 35° SW
BREEZE-M DEB (TANK) 2.6 01:58:56 27° W 02:00:11 58° SSW 02:06:23 10° ESE
SL-16 R/B 2.5 01:57:01 20° SSE 02:01:36 82° WSW 02:07:55 10° NNW
Cosmos 1933 Rocket 4.3 02:00:33 29° WSW 02:02:12 41° WNW 02:06:20 10° N
Meteor 2-4 Rocket 3.8 01:58:14 10° NNW 02:04:13 90° W 02:08:32 19° S
SAR-Lupe-3 4.5 02:01:51 10° NNE 02:05:29 86° WNW 02:06:43 39° SSW
Cosmos 1536 4.4 02:02:53 15° SE 02:05:35 30° E 02:09:09 10° NNE
MOZ.5/SAFIR/RUBIN 5/SL-8 4.0 02:04:31 30° SSW 02:06:42 56° W 02:11:25 10° NNW
Cosmos 1869 Rocket 3.5 02:04:44 32° S 02:06:42 90° WNW 02:11:05 10° N
Helios 1B rocket 4.2 02:04:12 10° NNW 02:07:25 22° WNW 02:09:20 16° W
Meteor 1-14 Rocket 4.3 02:05:00 27° SSW 02:08:03 69° WNW 02:13:44 10° N
Meteor 1-11 Rocket 4.5 02:04:11 16° SSE 02:08:17 45° E 02:13:30 10° NNE
Cosmos 1190 Rocket 4.1 02:06:38 27° S 02:09:30 70° ESE 02:14:45 10° NNE
Cosmos 1437 Rocket 2.7 02:07:27 10° NNW 02:11:30 75° W 02:13:21 30° S
Cosmos 921 Rocket 4.1 02:07:28 10° N 02:11:44 45° ENE 02:15:53 10° SE
Cosmos 1703 Rocket 4.2 02:09:24 10° NNW 02:13:34 40° W 02:15:13 28° SW
Cosmos 1697 Rocket 2.7 02:09:27 10° NNW 02:15:08 83° ENE 02:20:45 10° SSE
Cosmos 2221 Rocket 3.8 02:11:38 10° N 02:16:04 70° E 02:19:26 17° SSE
NOSS 7 (D) 3.9 02:15:49 10° NW 02:18:37 86° NE 02:21:20 12° SE
SeaSat 1 2.6 02:16:51 10° NNE 02:21:47 66° ESE 02:24:48 23° SSW
CZ-4B R/B 3.6 02:20:44 10° NNE 02:25:48 71° ESE 02:29:11 20° S
IRS-1D 3.9 02:20:57 10° NNE 02:25:51 57° E 02:29:29 18° S
Cosmos 614 Rocket 4.3 02:23:13 23° SW 02:26:13 55° WNW 02:31:17 10° NNE
Cosmos 2082 Rocket 2.9 02:22:31 18° S 02:26:33 46° ESE 02:31:59 10° NE
CZ-2D R/B 2.2 02:21:36 10° N 02:26:57 73° WNW 02:30:27 22° SSW
Aureole 1 Rocket 3.6 02:26:01 24° SSW 02:28:55 77° ESE 02:35:03 10° NNE
Cosmos 405 Rocket 3.7 02:27:52 23° WSW 02:29:25 32° WNW 02:32:51 10° N
COBE Rocket 4.3 02:24:29 10° SSE 02:29:26 63° ENE 02:34:16 10° N
Cosmos 1833 Rocket 2.7 02:26:35 23° SSW 02:30:14 79° ESE 02:35:53 10° NNE
Cosmos 1656 4.1 02:29:22 10° NW 02:34:27 41° WSW 02:37:53 19° SSW
Cosmos 1500 3.6 02:33:19 27° SW 02:35:04 49° WNW 02:38:46 10° N
Cosmos 1140 Rocket 3.5 02:32:12 23° SSW 02:35:32 78° WNW 02:40:49 10° NNE
COSMOS 2406 3.4 02:31:43 21° SW 02:35:35 69° WNW 02:41:22 10° NNE
Cosmos 407 Rocket 3.8 02:35:25 21° SW 02:38:55 59° WNW 02:44:14 10° NNE
CBERS-1 4.2 02:33:53 10° NNE 02:39:03 73° ESE 02:43:03 17° S
Cosmos 2360 4.2 02:36:07 10° NNW 02:41:54 83° WSW 02:47:37 10° SSE
Cosmos 2233 Rocket 4.1 02:39:40 15° S 02:44:57 82° E 02:51:15 10° N
Cosmos 1674 Rocket 3.9 02:42:55 10° N 02:47:17 67° ENE 02:51:34 10° SSE
Cosmos 192 4.3 02:43:30 10° NNW 02:48:26 80° WSW 02:53:19 10° SSE
CZ-4C R/B 4.5 02:47:15 21° SW 02:48:28 25° W 02:51:34 10° NW
ATLAS 5 CENTAUR R/B 3.2 02:46:26 10° WNW 02:50:07 48° SW 03:01:57 10° SSE
Cosmos 2322 Rocket 4.4 02:45:23 10° NNW 02:50:14 28° NE 02:55:04 10° ESE
Cosmos 1666 2.6 02:48:03 21° SSW 02:50:27 75° W 02:54:13 10° N
Cosmos 1066 Rocket 4.4 02:48:37 10° N 02:54:32 86° ENE 03:00:24 10° SSE
Meteor 1-13 Rocket 4.4 02:50:30 10° NNW 02:56:07 55° W 03:01:04 13° S
ARIANE 5 R/B 3.2 02:53:07 10° NNE 02:58:06 52° E 03:03:07 10° S
IRS-1C 4.3 02:53:44 10° NNE 02:59:05 70° ESE 03:04:12 11° S
Cosmos 676 Rocket 4.1 02:56:57 17° SSW 03:00:59 73° WNW 03:06:20 10° NNE
ADEOS II 2.1 02:59:34 10° NNE 03:04:52 81° WNW 03:09:33 13° SSW
Cosmos 1818 3.9 02:59:29 10° NW 03:04:58 74° NE 03:10:25 10° SE
NPP 4.3 03:01:04 10° N 03:06:07 42° WNW 03:10:20 14° SW
ISS -3.8 03:02:53 10° WNW 03:06:15 89° SSW 03:09:37 10° ESE
Cosmos 1743 3.4 03:02:46 10° S 03:06:27 51° E 03:10:12 10° NNE
SL-08 R/B 3.3 03:02:45 10° SSE 03:07:31 84° WSW 03:12:24 10° NNW
Resurs 1-4 Rocket 3.1 03:04:33 10° N 03:09:17 33° WNW 03:13:26 13° WSW
Cosmos 1733 Rocket 3.1 03:06:40 16° SSW 03:10:03 61° WNW 03:14:21 10° N
Abrixas rocket 2.1 03:07:43 10° W 03:10:31 46° SSW 03:13:18 10° SE
Cosmos 1908 Rocket 4.2 03:06:34 10° S 03:10:56 55° E 03:15:19 10° NNE
Cosmos 1242 Rocket 2.4 03:17:47 10° NNW 03:21:15 90° WNW 03:24:43 10° S
ATLAS 5 CENTAUR R/B 2.4 03:19:27 10° NW 03:25:06 66° SW 03:31:38 10° SSE
Aureole 2 4.3 03:24:13 11° SSW 03:26:58 65° ESE 03:29:55 10° NNE
deb Kosmos-1763 4.4 03:24:22 14° SW 03:27:19 52° WNW 03:30:53 10° NNE
Gbstr 26 Del rocket 3.4 03:24:38 10° WNW 03:28:46 46° SSW 03:33:41 10° SE
SL-8 R/B 3.8 03:25:51 10° W 03:30:42 86° N 03:35:31 10° E
Cosmos 1980 Rocket 2.4 03:25:23 10° NW 03:30:52 50° WSW 03:36:19 10° S
Cosmos 1378 3.2 03:27:27 10° NNW 03:31:12 64° W 03:34:54 10° S
CSL-04 DEB 4.4 03:27:43 10° SSE 03:31:51 85° WSW 03:35:55 10° NNW
IRS-P3 4.5 03:32:32 10° N 03:37:44 54° WNW 03:42:54 10° SW
Lacrosse 5 3.7 03:33:46 10° WNW 03:38:15 30° N 03:42:43 10° ENE
Cosmos 1975 Rocket 3.7 03:34:12 10° N 03:38:36 62° ENE 03:43:01 10° SSE
BREEZE-M TANK 2.6 03:37:05 10° WSW 03:40:00 58° S 03:45:23 10° E
IDEFIX/ARIANE 42P 2.8 03:35:10 10° NNE 03:40:24 75° ESE 03:45:34 10° S
Cosmos 1356 4.2 03:38:19 11° SW 03:41:25 36° WNW 03:44:38 10° N
Cosmos 1536 4.2 03:38:37 10° SW 03:42:00 25° WNW 03:45:25 10° NNW
SL-16 R/B 4.2 03:42:45 10° WSW 03:46:09 15° W 03:49:35 10° NW
H-2A R/B 2.1 03:42:29 10° SSE 03:46:53 81° WSW 03:51:11 10° NNW
CZ-4B R/B 3.9 03:45:46 10° SE 03:48:46 28° ENE 03:51:47 10° N
MSX 4.3 03:43:55 10° NNE 03:49:38 65° ESE 03:55:20 10° S
Cosmos 921 Rocket 4.4 03:46:27 10° NW 03:49:41 20° W 03:52:52 10° SW
Cosmos 2278 4.5 03:45:28 10° NW 03:50:26 31° WSW 03:55:23 10° SSW
Cosmos 1975 2.9 03:47:28 10° S 03:51:28 83° E 03:55:28 10° N
Cosmos 2208 Rocket 4.2 03:46:17 10° NNW 03:51:44 83° ENE 03:57:03 10° SSE
CZ-2C R/B 3.0 03:47:42 10° NNE 03:51:48 78° ESE 03:55:49 10° S
Cosmos 1464 Rocket 4.1 03:46:16 10° SSW 03:52:39 81° W 03:59:02 10° N
Intercosmos 25 Rocket 4.0 03:49:28 10° N 03:53:18 80° E 03:59:14 10° S
SL-16 R/B 2.4 03:47:49 10° NNW 03:53:33 82° ENE 03:59:13 10° SSE
Cosmos 1867 4.4 03:49:32 10° S 03:54:42 47° ESE 03:59:56 10° NE
